Regional Weather Roundup
Issued by NWS

Home | Current Version | Previous Version | Graphics & Text | Print | Product List | Glossary On
Versions: 1 2 3 4 5 6 7 8 9 10 11 12 13 14 15 16 17 18 19 20 21 22 23 24 25 26 27 28 29 30 31 32 33 34 35 36 37 38 39 40 41 42 43 44 45 46 47 48 49 50
000
ASUS43 KLOT 251306
RWRIL

ILLINOIS REGIONAL WEATHER ROUNDUP
NATIONAL WEATHER SERVICE CHICAGO/ROMEOVILLE IL
700 AM CST THU DEC 25 2014

NOTE: "FAIR" INDICATES FEW OR NO CLOUDS BELOW 12,000 FEET WITH NO
SIGNIFICANT WEATHER AND/OR OBSTRUCTIONS TO VISIBILITY.

* THESE STATIONS ARE NOT UNDER NWS QUALITY CONTROL. THEY ALSO MAY NOT
  REPORT WEATHER SUCH AS PRECIPITATION OR FOG.

ILZ001-002-007-009-015-016-024-251400-
NORTHWEST ILLINOIS

CITY           SKY/WX    TMP DP  RH WIND       PRES   REMARKS
MOLINE         CLOUDY    34  27  75 SW10      29.86R WCI  26
STERLING*      CLOUDY    34  27  75 W12       29.87R WCI  25
SAVANNA*       CLOUDY    34  29  82 SW9       29.85R WCI  26
$$

ILZ003-004-008-010-011-017-018-251400-
NORTH CENTRAL ILLINOIS

CITY           SKY/WX    TMP DP  RH WIND       PRES   REMARKS
ROCKFORD       CLOUDY    33  27  78 SW14G22   29.86R WCI  23
FREEPORT*      CLOUDY    32  28  85 SW9       29.85R WCI  24
ROCHELLE*      CLOUDY    32  29  89 SW14G24   29.87R WCI  22
DE KALB*       CLOUDY    31  28  86 W14       29.86R WCI  21
PERU*          CLOUDY    35  30  83 SW12      29.89R WCI  26
$$

ILZ005-006-012>014-019>023-251400-
NORTHEAST ILLINOIS

CITY           SKY/WX    TMP DP  RH WIND       PRES   REMARKS
CHICAGO-OHARE  CLOUDY    34  28  79 SW15      29.85R WCI  24
CHICAGO-MIDWAY CLOUDY    35  29  78 SW12G25   29.87R WCI  27
AURORA         CLOUDY    34  28  79 W13       29.87R WCI  25
LANSING*       CLOUDY    34  30  85 W13G18    29.88R WCI  25
JOLIET*        CLOUDY    33  29  85 SW6       29.89R WCI  28
WAUKEGAN       CLOUDY    33  27  78 SW9G22    29.82R WCI  25
DUPAGE AIRPORT CLOUDY    33  28  81 SW17      29.85R WCI  22
KANKAKEE*      CLOUDY    34  31  87 SW10      29.92R WCI  26
WHEELING       CLOUDY    34  27  75 SW14G20   29.86R WCI  25
MORRIS*        CLOUDY    34  31  90 W12       29.89R WCI  25
ROMEOVILLE*    CLOUDY    33  30  86 W10       29.88R WCI  25
NORTHERLY ISL    N/A     35  28  76 W12         N/A  WCI  27
$$

LMZ740>746-251400-
SOUTHERN LAKE MICHIGAN

STATION/POSITION SKY/WX   TEMP    WIND        PRES    VSBY  WAVE
                          AIR SEA DIR/SP/G                  HT/PER
                          (F)     (DEG/KT/KT) (MB)    (MI)  (FT/S)
WAUKEGAN HARBOR            34                   N/A
HARRISON CRIB              35     240/ 13/ 19   N/A
BURNHAM HARBOR             35     240/ 11/ 16   N/A
CALUMET HARBOR             35     220/  8/ 14 1010.2S
MICHIGAN CITY              35     220/ 24/ 28   N/A
$$

ILZ025>027-034>036-040-047-049-050-058-095>099-251400-
WEST-CENTRAL ILLINOIS

CITY           SKY/WX    TMP DP  RH WIND       PRES   REMARKS
QUINCY         CLEAR     32  28  85 S10       29.90R WCI  24
GALESBURG*     CLOUDY    33  30  88 S8        29.89R WCI  26
MACOMB*        MOCLDY    33  30  88 S8        29.92S WCI  26
JACKSONVILLE*  PTCLDY    36  31  83 S7        29.95R WCI  30
PITTSFIELD*    CLEAR     34  30  88 S6        29.94R WCI  28
$$

ILZ028>032-037-038-041>044-048-051>054-059>061-251400-
CENTRAL ILLINOIS

CITY           SKY/WX    TMP DP  RH WIND       PRES   REMARKS
PONTIAC        CLOUDY    35  32  88 SW10      29.93R WCI  28
BLOOMINGTON    CLOUDY    35  31  86 SW15      29.94R WCI  25
DECATUR        CLOUDY    36  30  79 SW10      29.97R WCI  28
PEORIA         CLOUDY    36  28  73 SW10      29.92R WCI  28
LACON*         CLOUDY    34  28  80 SW12      29.90R WCI  25
LINCOLN*       CLOUDY    37  31  81 SW6       29.96R WCI  32
SPRINGFIELD    CLOUDY    36  29  75 SW9       29.96R WCI  29
TAYLORVILLE    CLOUDY    34  32  93 SW9       29.98R WCI  26
$$

ILZ033-039-045-046-055>057-062-063-251400-
EAST-CENTRAL ILLINOIS

CITY           SKY/WX    TMP DP  RH WIND       PRES   REMARKS
CHAMPAIGN      CLOUDY    35  31  85 SW13      29.96R WCI  26
DANVILLE*      CLOUDY    35  31  86 SW8       29.93R WCI  28
RANTOUL*       CLOUDY    37  32  84 SW12      29.95R WCI  29
MATTOON        CLOUDY    36  30  79 SW5       29.98R WCI  32
PARIS*         CLOUDY    36  32  87 SW7       29.99R WCI  30
$$

ILZ079-100>102-251400-
SOUTHWEST ILLINOIS

CITY           SKY/WX    TMP DP  RH WIND       PRES   REMARKS
ALTON          CLEAR     37  32  81 S7        29.83F WCI  32
BELLEVILLE     CLEAR     33  32  95 S6        30.01R WCI  27
CAHOKIA*       CLEAR     34  30  85 S5        30.00R WCI  30
SPARTA*        CLEAR     34  30  86 S6        30.04R WCI  29
$$

ILZ064>066-069>071-074>076-080>082-084>086-088>090-092>094-251400-
SOUTH-CENTRAL ILLINOIS

CITY           SKY/WX    TMP DP  RH WIND       PRES   REMARKS
CARBONDALE     CLEAR     32  28  85 S5        30.05R WCI  27
CAIRO*         CLEAR     38  32  80 S6        30.08R WCI  33
EFFINGHAM*     CLOUDY    37  32  81 SW6       30.02R WCI  32
MARION         PTCLDY    34  32  93 S7        30.06R WCI  28
MT. VERNON     CLOUDY    37  28  70 SW9       30.04R WCI  31
CENTRALIA*     CLOUDY    37  31  79 SW9       30.02R WCI  30
SALEM*         CLOUDY    39  32  77 SW8       30.02R WCI  33
METROPOLIS*    PTCLDY    37  32  84 S5        30.08R WCI  33
$$

ILZ067-068-072-073-078-083-087-091-251400-
SOUTHEAST ILLINOIS

CITY           SKY/WX    TMP DP  RH WIND       PRES   REMARKS
LAWRENCEVILLE  CLOUDY    38  34  85 S7        30.04R WCI  33
FLORA*         CLEAR     37  33  87 SW9       30.03R WCI  30
FAIRFIELD*     CLOUDY    37  33  84 SW6       30.04R WCI  33
HARRISBURG*    MOCLDY    36  32  87 S5        30.07R WCI  32
ROBINSON*      CLOUDY    37  33  85 SW7       30.03R WCI  31
CARMI*         CLOUDY    39  37  91 S6        30.06R
$$

ABBREVIATIONS USED IN REMARKS
   TC - TEMPERATURE IN CELSIUS
  WCI - WIND CHILL INDEX
   HX - HEAT INDEX
  VSB - VISIBILITY
$$



USA.gov is the U.S. government's official web portal to all federal, state and local government web resources and services.